sat.trackr.live / text

‹ back to catalog

STARLINK-3703

NORAD 52101 · 2022-029P

PAYLOAD ACTIVE UNKNOWN

§ Identity

Operator
Country
US
Launch date
2022-03-19
Launch site
AFETR
Launch vehicle
Mass (kg)
RCS (m²)

Purposes: comms

External: N2YO · Heavens-Above · Gunter

§ Orbital elements

Epoch: 2026-05-25T04:20:03.155712Z

Period
95.44 min
Inclination
53.2136°
Eccentricity
0.0001673
Mean motion
15.08838310 rev/d
Perigee alt
538.6 km
Apogee alt
540.9 km
Semi-major
6,917.9 km
B*
5.7720e-6
RAAN
105.9318°
Arg perigee
79.8239°
Mean anomaly
280.2941°
Rev number
23,219

§ Raw data

STARLINK-37031 52101U 22029P   26145.18059208 -.00000196  00000+0  57720-5 0  99972 52101  53.2136 105.9318 0001673  79.8239 280.2941 15.08838310232193

JSON: /api/v1/satellites/52101 · /tle

For live sub-satellite position, see the globe view (requires WebGL).

§ Visibility from observer

Set your observer location to see the next 7 days of passes ≥ 10°. The values pass through the URL so the page stays shareable.

No JS? Fill the form by hand. The geolocation button needs JavaScript.